Epoch 2004 Aug. 23.0 TT = JDT 2453240.5
T 2004 Aug. 30.20469 TT MPCW
q 0.9884388 (2000.0) P Q
n 0.17991978 Peri. 0.59667 +0.44787611 +0.89080784
a 3.1075403 Node 296.01301 -0.82066939 +0.37558012
e 0.6819225 Incl. 4.88987 -0.35483622 +0.25573615
P 5.48
From 59 observations 2004 Sept. 2-2015 Apr. 22, mean residual 0".5.